Theta_e
275 275 276 277 277 277 276 276 277 277 276 275 275 275 275 275 275 276 276 276 276 276 277 277 277 278 278 278 278 278 277 277 277 278 278 278 278 278 278 278 278 278 278 278 279 279 280 280 281 281 281 281 281 281 282 282 282 283 283 284 284 284 283 283 283 283 283 284 284
274 275 276 277 277 277 276 276 276 276 275 275 275 275 275 276 276 276 276 276 276 277 277 277 277 277 277 278 278 277 277 276 277 277 278 277 277 277 278 278 278 278 278 279 279 280 280 281 281 280 280 280 281 281 281 282 282 283 283 284 283 283 283 282 283 283 284 284 284
274 275 275 275 274 274 274 275 274 274 274 274 275 275 275 276 276 276 276 276 277 277 277 277 277 277 277 277 277 277 277 277 277 277 277 277 277 277 277 277 277 278 279 279 280 280 280 280 280 280 280 280 280 281 281 282 283 283 283 282 282 282 282 282 283 283 284 284 284
274 274 274 274 273 273 273 274 274 273 274 274 275 275 276 276 276 276 276 276 276 277 277 277 277 277 277 277 277 277 277 278 277 277 277 277 277 277 277 277 278 278 279 279 279 279 279 279 279 279 279 279 280 281 281 282 282 282 282 282 282 282 282 282 283 283 284 284 284
274 274 274 274 273 273 273 273 273 273 274 274 275 275 275 276 276 276 276 276 276 276 276 276 277 277 277 277 277 277 277 277 278 278 277 277 277 277 277 277 277 278 279 279 279 278 278 278 278 278 279 279 280 281 281 282 282 281 281 281 282 282 282 282 283 283 284 284 284
274 274 274 274 273 273 273 273 273 273 274 274 274 274 275 275 276 276 275 275 275 276 276 277 277 278 278 277 277 277 277 277 277 277 277 277 277 277 277 277 277 278 278 278 278 278 278 278 278 278 279 279 280 280 281 281 281 281 281 281 281 282 282 282 283 283 283 283 283
274 274 273 273 273 273 273 273 273 274 274 274 274 274 274 275 275 275 275 275 275 276 277 278 278 277 277 277 277 277 277 277 277 277 277 277 277 277 277 277 277 277 277 277 277 277 278 278 278 278 279 279 280 280 280 280 280 280 280 280 281 281 282 282 282 283 283 283 282
274 274 273 273 273 273 272 273 273 274 274 274 274 274 274 275 275 275 274 275 276 276 277 277 277 277 277 277 277 276 277 277 277 277 277 277 277 277 277 277 277 277 277 277 277 277 278 278 278 278 278 279 279 279 280 280 280 280 280 280 280 281 281 282 282 282 282 282 282
274 273 273 273 273 273 273 273 274 274 275 274 274 274 275 275 275 275 275 275 276 277 277 277 277 277 277 277 276 276 277 277 277 277 277 277 277 276 276 276 277 277 277 277 278 278 278 278 277 278 278 278 278 279 279 279 279 279 279 279 280 280 281 281 281 281 282 282 282
273 273 273 273 273 273 274 274 275 275 275 274 274 274 275 276 276 275 275 276 277 277 277 277 277 277 277 277 277 277 277 277 277 277 277 277 277 276 276 276 277 277 277 278 278 278 278 277 277 277 277 278 278 278 279 279 279 279 279 279 279 280 280 280 281 281 281 282 283
273 273 274 274 273 274 274 274 275 275 275 275 275 275 275 275 275 275 276 277 277 277 277 278 278 277 277 277 277 277 277 277 277 277 277 277 276 276 276 276 276 277 277 277 278 278 277 277 277 277 277 277 278 278 278 279 279 279 279 279 279 279 279 279 280 281 282 283 284
273 273 274 274 274 274 275 275 275 275 275 275 275 275 274 275 275 276 277 277 277 277 278 278 278 278 277 277 277 277 277 277 277 277 277 277 276 276 276 276 277 277 277 277 278 277 277 277 276 276 276 277 277 278 278 278 278 278 278 278 279 279 279 279 280 281 283 284 285
273 274 274 274 274 275 275 275 275 275 275 275 275 275 275 276 276 276 277 277 277 277 278 278 278 278 277 277 277 277 277 277 277 277 277 277 277 276 276 276 276 277 277 277 277 277 277 276 276 276 276 276 277 277 278 278 278 278 278 278 278 278 278 279 280 282 283 284 284
274 274 274 274 274 275 275 275 275 275 275 275 275 275 276 276 276 277 277 276 277 278 278 278 278 278 278 277 277 277 277 277 277 277 277 277 277 277 277 276 276 276 277 277 277 277 276 276 276 276 276 276 277 277 277 278 278 278 278 278 278 278 279 280 281 282 283 283 283
274 274 274 274 274 274 274 274 275 275 275 275 275 275 275 276 276 277 277 277 277 278 278 278 277 277 277 277 277 277 277 277 277 277 277 277 277 277 276 276 276 276 276 276 276 276 276 276 276 276 276 276 276 277 277 277 278 278 278 278 279 279 280 281 282 282 283 283 283
274 274 274 274 274 274 274 274 274 274 274 275 275 275 275 276 276 276 277 277 277 277 277 277 277 277 277 277 277 277 277 277 277 277 277 277 277 276 276 276 276 276 276 275 276 276 276 276 276 276 276 276 276 276 277 277 277 278 278 279 280 280 281 282 282 282 283 283 283
274 274 274 274 274 274 274 274 274 274 274 275 275 275 275 275 276 276 277 277 277 277 277 276 276 276 276 277 277 277 277 276 277 277 277 277 277 276 276 275 275 275 275 275 275 275 276 276 276 276 276 276 276 277 277 277 278 278 279 280 281 281 282 282 282 283 283 283 283
274 274 274 274 274 274 274 274 274 274 274 275 275 275 275 275 276 276 277 277 277 276 276 276 276 276 276 276 276 277 277 277 277 277 277 277 276 276 275 275 275 275 275 275 275 275 275 276 276 276 276 276 277 277 277 278 278 279 280 281 282 282 281 281 282 282 283 283 284
274 274 274 274 274 274 274 274 274 274 275 275 275 275 275 275 276 276 276 276 277 276 276 276 276 276 276 276 276 276 277 277 277 277 277 277 276 276 275 275 274 275 275 275 275 275 275 275 276 276 276 276 277 277 278 278 279 280 281 281 280 280 280 280 281 282 283 283 284
274 274 274 274 274 274 274 274 274 275 275 275 275 275 275 276 276 276 276 276 276 276 276 276 276 276 276 276 276 276 276 277 277 277 276 276 276 275 275 275 274 274 275 275 275 275 275 275 276 276 276 277 277 278 279 279 280 281 281 280 278 278 278 279 281 282 283 284 284
274 274 274 274 274 274 274 275 275 275 275 275 275 275 275 276 276 276 276 276 276 276 276 276 275 275 275 275 275 276 276 277 277 276 276 275 275 275 275 275 274 274 275 275 275 275 275 275 276 276 277 278 279 280 280 281 281 280 279 279 278 278 278 279 281 282 283 284 284
274 274 275 275 275 275 275 275 275 275 275 275 275 275 275 276 276 276 276 276 276 276 276 275 275 275 275 275 276 276 276 277 276 276 275 275 274 275 275 275 274 274 275 275 275 275 276 276 277 278 278 280 281 282 282 282 280 279 279 279 278 278 279 280 280 281 282 283 283
274 275 275 275 275 275 276 275 275 275 275 275 275 275 275 275 275 275 276 276 276 275 275 275 275 275 275 276 276 276 276 276 275 275 274 274 274 274 275 275 274 274 275 275 275 276 276 277 278 280 281 282 282 282 282 281 280 280 279 278 278 279 280 281 280 281 282 282 283
275 275 275 275 275 275 275 275 275 275 275 275 275 275 275 275 275 275 275 275 275 275 275 275 275 275 276 276 276 276 276 275 275 274 274 274 274 274 275 275 275 275 276 276 277 278 279 280 281 282 282 283 283 282 281 281 281 281 280 279 279 280 281 282 281 281 282 281 282
275 275 275 275 275 275 275 275 274 274 274 274 275 275 275 275 275 275 275 274 274 274 274 274 275 275 276 276 276 276 275 275 274 274 273 273 274 274 275 275 275 276 276 277 280 283 284 285 284 283 282 282 282 282 282 282 282 282 281 280 280 281 282 282 282 281 281 281 282
274 274 274 274 274 274 274 274 274 274 274 274 274 274 275 275 275 275 274 274 274 274 274 275 275 276 276 276 275 275 275 275 274 274 273 273 274 274 275 275 275 276 277 279 282 285 286 288 287 285 282 281 281 282 282 282 282 281 281 280 281 281 282 282 282 281 281 281 282
274 274 274 274 274 274 274 274 274 274 274 274 274 274 274 275 275 274 274 274 274 274 274 275 275 276 276 275 275 275 275 275 274 274 274 273 274 274 275 275 276 276 277 281 284 286 287 288 288 287 284 281 281 281 281 281 281 281 280 281 281 281 282 282 281 281 280 281 282
273 273 273 273 273 273 274 274 274 274 274 274 274 274 274 274 274 274 273 274 274 274 274 275 275 276 276 275 275 275 275 275 274 274 274 274 275 275 275 276 276 277 279 283 285 287 288 288 288 287 285 283 281 281 281 281 281 280 280 280 280 281 281 282 281 280 280 280 281
273 273 273 273 273 273 273 273 273 274 274 274 274 274 274 274 273 273 273 273 274 274 274 275 276 275 275 274 275 275 275 275 274 274 274 274 275 275 276 276 276 278 280 284 286 287 288 288 288 287 286 284 282 280 280 280 280 280 280 279 279 280 280 281 281 280 280 280 281
273 273 273 273 273 273 273 273 273 273 274 274 274 274 274 273 273 273 273 273 273 274 275 275 275 275 274 274 275 275 275 275 275 274 274 275 275 275 276 276 276 278 280 284 286 288 288 288 287 287 286 285 282 281 280 280 280 280 279 279 279 279 279 280 280 280 280 280 281
273 273 273 273 273 273 273 273 273 273 273 273 273 273 273 273 273 273 273 273 274 275 276 276 275 274 274 275 275 275 275 274 275 275 275 275 275 276 276 276 276 278 281 284 286 287 287 287 286 286 285 285 282 281 280 280 280 279 279 279 278 278 278 279 280 280 280 280 280
273 273 273 273 273 273 273 273 273 273 273 273 273 273 274 274 274 274 274 274 274 275 275 275 274 274 274 275 275 275 274 274 275 275 275 275 275 275 275 276 276 278 281 285 287 287 287 286 286 285 285 284 282 281 280 280 280 280 279 279 278 278 278 278 278 279 280 281 281
273 273 273 273 273 273 273 273 273 273 273 273 273 274 274 274 274 274 274 274 274 274 274 274 274 274 274 274 274 274 275 275 275 275 276 276 275 275 276 276 276 279 282 285 286 287 287 286 285 285 284 284 281 280 279 280 280 280 279 279 278 278 278 278 277 278 279 281 282
273 273 273 273 273 273 273 273 273 273 274 274 274 274 274 274 274 274 274 275 275 274 274 274 274 274 274 275 275 275 275 276 275 275 275 275 275 275 276 276 276 279 283 284 286 287 287 286 285 284 284 283 280 279 278 278 279 279 279 279 278 278 278 277 277 277 278 280 282
273 273 273 273 273 273 273 274 274 274 274 274 274 274 274 274 274 274 274 275 276 275 274 274 274 274 274 275 275 275 275 275 275 275 275 275 275 275 276 276 276 279 282 284 286 287 287 286 285 284 283 281 279 277 277 277 278 278 278 278 278 278 277 277 277 277 277 278 280
273 273 273 273 273 273 274 274 274 274 274 274 274 274 274 274 274 274 275 276 275 274 274 274 274 274 274 274 275 276 276 275 275 275 275 275 275 275 275 276 276 278 282 284 286 287 287 287 285 284 282 280 277 277 276 276 277 277 277 278 278 278 277 277 277 277 277 278 280
274 274 274 274 273 274 274 274 274 274 274 274 274 275 275 275 274 275 275 276 274 274 273 274 274 274 274 275 275 275 276 275 275 275 275 276 275 275 275 276 275 277 280 283 286 287 287 287 286 284 282 278 277 276 276 275 276 276 277 277 278 278 277 277 277 276 276 277 279
274 274 274 274 274 274 274 275 275 275 275 275 275 275 275 275 275 275 275 276 274 274 274 274 274 274 275 275 276 276 276 275 276 275 275 275 275 275 276 276 275 276 279 283 285 287 287 287 286 284 282 278 276 276 275 275 275 275 275 276 277 277 277 277 276 276 276 277 280
275 275 275 275 275 275 275 275 275 275 275 275 275 275 275 275 275 275 275 276 274 274 274 274 274 275 276 277 276 276 275 275 276 276 275 275 275 277 277 276 275 276 279 283 285 286 286 286 286 285 282 279 277 276 275 274 274 274 274 275 276 276 276 277 276 276 276 277 280
275 275 275 275 275 275 275 275 275 275 274 274 274 274 274 275 275 275 275 275 274 274 274 275 275 276 276 277 277 276 275 275 275 275 276 276 276 278 278 276 275 276 279 283 285 285 285 286 286 285 283 279 277 276 275 274 273 273 273 274 275 275 276 276 276 276 276 276 278
275 275 275 275 276 276 275 275 274 274 274 274 274 274 275 275 275 275 275 274 274 274 275 275 276 276 276 277 276 275 275 275 275 275 276 276 276 277 277 276 275 276 279 282 284 284 285 285 285 285 283 280 277 276 275 274 273 272 272 273 274 274 275 275 276 276 276 275 276
Wind_Speed
7 7 7 8 8 7 6 6 7 7 7 7 7 8 8 8 8 8 8 8 8 8 8 9 9 10 11 14 14 14 13 13 14 15 15 15 14 14 15 15 15 15 16 16 15 13 12 11 11 9 9 9 9 10 10 9 10 10 10 10 9 10 11 12 12 13 13 13 11
7 7 7 8 8 7 6 7 7 7 7 6 7 7 8 8 8 8 8 8 8 9 9 9 10 11 13 14 14 13 13 13 14 15 15 14 14 14 15 14 15 15 16 16 15 12 11 11 11 10 9 9 10 10 10 9 9 10 10 11 10 10 10 11 11 12 12 12 11
7 7 7 7 7 6 6 6 7 7 7 7 7 7 8 8 8 8 8 9 10 10 10 9 10 12 13 14 13 13 13 14 15 14 14 13 13 14 14 14 15 16 16 15 13 12 12 12 11 10 10 9 10 10 10 9 9 9 10 11 10 9 9 9 10 10 10 9 10
7 7 7 7 7 7 7 6 7 8 8 7 7 8 8 8 8 8 8 9 10 10 10 10 11 11 12 13 14 14 14 15 16 15 14 13 13 14 15 15 16 16 15 14 14 14 14 15 12 10 10 11 12 11 9 8 9 9 9 10 9 9 9 9 9 9 9 9 10
8 7 7 7 7 7 7 6 7 8 8 7 8 8 8 8 8 8 9 10 10 10 11 12 11 11 12 13 14 15 15 15 15 14 13 13 14 14 15 15 15 15 14 14 14 15 16 16 12 10 10 11 10 9 9 10 10 10 9 9 9 9 9 9 9 8 8 8 9
8 8 7 7 7 7 7 6 8 8 8 8 8 9 9 9 9 9 10 10 10 11 12 13 12 12 12 13 14 14 14 14 13 13 13 13 14 14 15 15 15 15 14 14 14 15 15 14 11 10 9 10 10 10 11 11 11 11 10 10 10 9 9 9 9 8 9 10 11
8 9 8 8 7 7 7 7 8 8 8 8 9 10 11 11 11 11 11 10 11 11 11 11 11 11 12 13 13 14 14 13 13 13 13 13 14 14 15 15 16 15 14 14 14 14 13 13 10 10 10 10 9 10 12 12 12 12 12 12 10 10 9 10 9 9 10 12 14
8 9 9 8 8 8 8 8 8 9 9 9 9 11 12 13 13 12 11 11 11 11 11 10 11 12 12 13 13 14 14 14 14 13 13 13 14 15 15 16 16 15 15 14 14 14 14 12 10 9 9 9 9 10 12 14 14 14 13 13 11 10 9 9 9 10 11 14 15
9 9 9 8 8 8 8 9 10 10 11 10 10 11 13 14 14 13 12 11 12 12 12 10 11 12 13 13 14 14 14 13 13 13 13 13 14 15 15 15 16 15 15 14 15 15 14 12 10 9 9 9 10 11 13 15 16 15 14 13 12 11 11 11 11 12 13 14 15
10 10 10 9 9 9 9 10 11 12 12 11 11 12 13 14 13 12 11 11 12 12 12 11 12 12 13 13 13 13 13 13 13 13 14 14 14 15 15 14 15 15 15 14 14 14 14 11 11 11 11 11 12 14 15 16 16 16 14 11 12 13 14 14 14 14 14 14 14
11 11 10 10 10 10 10 11 11 12 11 11 11 12 12 12 12 12 12 12 13 13 13 12 12 12 12 12 13 13 14 13 13 14 14 14 14 14 14 14 15 15 15 15 14 13 12 11 12 14 15 14 14 14 15 15 16 16 15 13 14 15 16 16 15 14 14 13 12
11 11 11 10 10 11 11 12 11 11 11 11 12 12 11 11 11 12 13 14 14 14 13 12 13 13 12 12 13 13 14 14 15 15 15 14 14 14 14 14 15 15 16 16 15 13 12 12 14 16 17 17 14 13 13 15 16 16 16 16 16 15 15 16 16 14 12 11 10
11 11 11 11 12 12 13 12 11 11 11 12 12 12 12 12 13 14 14 15 15 13 12 12 13 13 13 13 13 14 14 14 15 15 15 15 14 14 14 14 14 15 15 15 14 14 13 14 15 17 17 18 15 14 14 15 16 16 16 17 16 16 15 16 16 15 13 11 9
11 12 12 12 13 13 13 12 11 10 11 12 12 12 12 12 13 14 14 14 14 13 12 11 12 12 13 14 15 15 15 15 16 16 16 16 15 14 14 14 14 14 14 14 14 15 15 15 16 17 18 18 17 16 16 16 15 16 16 16 16 16 16 16 16 15 13 10 10
12 12 13 13 13 13 12 12 11 11 11 12 12 12 12 12 13 14 14 14 14 13 12 11 11 12 14 16 16 16 16 15 16 16 16 16 15 15 15 15 15 15 15 14 14 15 15 16 16 17 17 18 18 18 17 16 16 16 15 16 16 16 15 15 14 13 11 10 10
13 13 13 13 14 13 13 12 10 10 11 12 12 13 12 12 12 13 14 14 13 12 12 12 13 13 14 15 16 16 15 15 15 16 15 15 15 15 15 15 15 15 16 16 16 15 15 15 15 16 17 17 18 18 17 17 17 16 16 16 16 15 14 14 12 11 10 9 10
13 13 13 13 14 14 13 12 11 11 11 12 13 13 13 12 12 12 14 14 13 13 13 14 14 13 14 14 15 14 14 14 14 15 14 14 15 15 15 15 15 15 16 16 17 17 17 16 16 16 16 17 17 17 17 17 17 16 16 16 15 14 12 11 10 9 9 9 10
13 13 13 13 14 14 14 14 13 12 13 13 13 13 13 12 12 13 13 14 14 14 15 15 14 14 14 14 14 13 13 13 14 14 14 14 14 15 15 15 15 15 16 17 17 18 18 18 17 16 16 16 17 16 16 16 16 16 16 15 13 11 9 8 8 8 8 9 10
13 13 13 13 13 13 14 14 14 13 13 13 13 13 13 13 13 13 13 14 15 15 15 15 14 14 13 14 14 13 13 13 13 14 14 14 14 14 15 15 15 15 16 17 18 18 18 18 18 17 17 17 17 17 16 16 15 15 13 12 10 8 7 7 7 8 8 9 10
13 13 13 13 13 13 13 13 13 13 13 13 13 13 13 13 13 14 14 14 15 15 15 15 14 14 14 14 14 14 13 12 12 13 13 13 14 14 15 15 15 16 17 17 18 18 18 18 18 18 18 18 18 18 17 15 13 12 10 8 6 6 6 6 7 8 9 9 9
13 13 13 13 13 13 13 13 13 13 13 13 13 13 13 13 13 13 14 14 15 15 14 14 15 15 15 15 15 14 13 12 12 12 13 13 14 14 15 15 15 15 16 17 17 18 18 19 19 19 19 19 18 17 14 11 9 7 6 5 5 5 6 7 7 8 8 9 9
13 13 13 13 12 13 13 13 13 13 13 12 12 13 13 13 13 13 14 14 14 14 14 14 14 14 14 14 14 14 13 12 12 12 12 12 13 14 14 14 14 15 16 17 17 17 18 19 20 20 19 17 15 11 8 5 4 4 5 5 5 6 7 7 8 8 8 8 8
13 13 12 12 12 13 13 13 12 12 12 12 12 12 12 12 13 13 13 13 13 13 14 13 13 14 14 13 13 13 13 12 12 12 12 13 13 14 14 14 14 15 15 15 16 16 18 19 20 19 16 11 7 5 4 3 3 4 4 5 6 7 7 7 7 7 7 7 7
13 12 12 11 12 12 12 12 12 12 12 12 12 12 12 12 13 13 13 13 13 13 13 12 12 13 13 12 12 12 12 13 13 13 13 14 13 14 14 13 13 14 14 14 16 19 21 20 16 12 7 5 5 5 4 3 3 4 5 6 7 7 7 7 6 6 6 6 7
13 13 13 13 13 12 12 11 12 12 12 12 13 13 13 13 13 13 13 13 13 13 13 13 13 12 11 11 12 12 12 13 13 13 14 14 14 14 14 12 12 12 13 15 22 28 30 27 13 5 5 6 6 5 4 4 5 6 6 7 7 7 7 6 6 6 6 7 7
14 14 14 14 13 13 13 12 12 12 13 13 13 13 13 13 13 13 13 13 13 13 13 12 12 12 12 12 12 13 13 12 12 13 13 13 14 14 14 12 12 12 13 18 26 33 34 27 12 10 9 7 6 6 5 6 7 8 8 9 9 9 8 7 7 7 7 7 7
14 14 14 14 14 14 13 13 13 13 13 13 13 13 13 13 12 13 13 13 13 13 12 11 11 12 13 12 13 14 14 13 12 12 13 13 14 15 14 13 12 12 15 22 30 33 29 18 15 17 14 9 7 7 6 6 8 9 10 10 11 11 10 8 8 8 8 9 8
14 14 14 13 14 14 14 13 13 13 13 13 13 13 13 13 13 13 13 14 13 12 11 10 11 10 10 10 12 13 14 14 13 12 12 12 14 14 14 14 13 15 19 27 33 30 21 16 21 22 19 13 8 7 7 7 9 10 10 11 12 12 11 9 8 8 9 10 10
14 14 14 13 13 14 14 13 13 13 13 13 13 13 13 13 13 13 14 14 14 13 11 9 9 9 9 11 12 13 14 14 13 12 12 13 14 14 15 15 15 18 23 30 33 26 20 23 25 25 22 17 11 7 7 8 9 10 11 11 12 12 12 10 8 8 9 10 11
14 14 14 13 13 13 13 13 13 13 12 12 12 13 13 13 13 13 14 14 13 13 12 10 10 10 11 12 13 13 13 13 13 13 13 14 15 15 15 16 15 17 22 29 30 26 24 26 26 25 23 20 14 10 7 8 9 10 10 11 12 13 13 12 10 9 9 9 11
14 13 13 13 13 13 13 13 13 12 12 11 12 12 13 13 14 14 13 13 12 12 13 12 12 12 12 12 13 13 13 14 13 13 14 14 16 16 16 16 15 17 21 28 29 26 25 25 25 25 23 21 15 11 8 8 9 10 10 11 12 12 12 11 11 11 10 9 10
13 13 13 13 13 13 13 13 12 12 12 12 12 12 13 13 13 13 13 12 12 12 13 13 13 13 13 13 13 13 14 14 14 14 15 15 16 16 16 15 15 17 21 28 29 26 24 24 25 24 23 21 15 12 9 9 9 10 10 11 12 12 12 11 11 12 12 9 9
13 13 14 14 14 13 13 12 12 12 12 12 12 13 13 13 13 13 13 12 12 12 12 13 13 14 14 14 13 14 14 14 14 15 16 16 16 16 16 15 13 16 22 28 29 27 25 23 24 24 23 21 15 11 10 10 9 9 9 10 11 12 12 12 12 13 13 11 9
13 14 14 14 14 14 13 13 13 13 13 13 13 13 13 13 13 13 13 12 11 10 10 11 12 13 13 13 13 13 13 13 14 14 15 15 15 16 16 15 12 17 24 29 29 28 26 23 24 24 22 19 13 11 10 11 9 9 9 10 11 12 12 13 13 13 14 13 11
14 14 14 14 14 14 13 13 13 13 13 13 13 13 13 13 12 12 13 13 12 11 10 10 11 11 12 12 12 13 13 13 13 14 14 15 15 16 17 16 15 20 27 30 30 28 27 24 24 24 21 16 11 9 10 11 10 10 11 11 11 12 13 13 13 13 14 14 13
14 14 14 14 14 14 14 14 13 13 13 13 13 13 13 12 11 11 12 13 13 12 12 12 12 13 13 13 12 13 13 13 13 13 14 15 15 16 16 17 17 22 27 31 30 28 27 25 25 23 19 13 10 9 9 9 9 10 11 11 11 12 12 12 12 13 13 14 14
14 14 14 14 14 14 14 13 13 13 13 13 13 13 13 12 11 10 11 12 12 12 13 13 13 14 14 14 13 13 12 12 12 13 13 14 14 15 15 16 17 21 25 30 30 28 27 26 25 23 18 12 9 9 9 8 8 9 10 10 10 11 11 10 11 12 13 14 16
13 14 14 14 14 14 14 13 13 13 14 13 13 13 12 12 11 11 11 12 11 11 13 13 14 14 14 15 14 13 12 12 12 12 12 13 13 14 15 16 17 19 22 28 29 28 28 27 26 23 18 12 10 9 9 8 8 8 9 9 9 10 10 9 9 10 12 15 20
13 14 14 14 14 14 13 13 13 13 14 13 13 13 13 12 11 11 12 12 10 10 11 12 13 14 15 15 13 12 12 12 11 11 11 11 13 15 17 16 16 17 20 25 28 29 29 28 26 23 19 13 10 9 8 8 9 9 9 9 9 9 9 9 8 9 10 14 20
14 14 14 14 13 13 13 13 13 13 13 13 13 13 13 12 12 12 12 11 10 10 11 11 13 14 14 14 12 12 11 11 11 11 11 11 12 15 17 15 14 16 18 23 26 28 29 28 27 24 19 12 9 8 8 8 8 9 9 9 9 9 9 9 8 9 10 12 16
13 14 14 14 13 12 12 13 14 13 13 13 13 13 12 12 12 11 11 10 10 10 11 11 13 14 13 13 11 10 11 11 11 11 11 11 12 13 14 13 13 14 16 20 25 28 29 28 27 25 20 13 9 7 7 7 8 9 9 9 9 9 9 9 9 9 9 10 11
Wind_Direction
338 337 336 337 339 339 337 334 334 334 333 330 325 321 319 317 315 316 318 320 320 320 319 319 320 321 322 325 329 332 333 332 329 326 325 325 324 323 321 318 316 314 312 310 308 306 304 304 306 308 310 309 307 304 302 301 300 298 297 298 303 307 308 307 303 301 300 299 296
335 334 335 337 339 338 336 334 334 334 332 327 323 319 317 316 316 317 318 320 320 319 319 319 320 321 322 326 329 330 330 327 325 324 324 324 323 322 320 317 315 313 312 311 309 308 309 313 316 315 313 310 306 303 300 300 300 299 300 303 306 307 306 303 301 301 300 299 296
333 333 335 337 339 338 336 335 334 331 328 325 322 320 318 317 317 317 318 319 319 319 320 320 320 320 322 324 327 327 327 325 324 323 323 323 322 321 320 317 315 313 313 312 313 315 319 324 322 318 313 309 305 302 300 300 302 303 305 308 308 306 303 300 300 300 299 297 295
333 333 333 334 336 336 335 334 331 329 327 326 323 321 320 319 317 317 317 317 319 319 319 318 317 318 320 323 324 324 324 323 323 323 323 322 322 320 318 316 315 314 314 315 319 323 326 327 322 316 310 305 302 300 301 305 308 309 309 309 306 303 300 298 298 297 296 294 294
332 332 332 333 333 333 333 332 330 328 327 326 324 322 321 319 318 317 318 319 319 318 316 314 313 315 319 321 322 323 322 323 323 323 322 322 321 320 318 316 315 315 316 319 323 326 326 325 319 312 306 302 301 301 304 309 310 309 308 305 303 301 298 296 295 295 294 293 293
331 330 330 330 330 331 331 330 328 326 325 325 323 321 319 318 318 318 317 317 314 312 311 311 312 315 318 321 321 322 322 322 322 322 321 321 321 320 318 315 315 316 317 320 322 322 321 320 315 309 305 302 301 303 306 309 309 307 305 302 301 298 296 294 294 294 293 293 293
329 328 328 328 329 330 329 328 327 326 324 323 321 318 316 315 315 314 312 311 310 310 310 311 313 315 318 321 321 322 322 321 320 319 320 320 320 319 318 316 316 316 317 318 318 317 317 315 312 308 306 305 304 305 307 309 308 305 302 300 299 297 295 294 294 294 293 293 292
328 327 326 326 327 327 327 326 326 326 325 323 319 316 313 313 312 311 310 309 309 309 309 309 311 313 316 320 321 321 320 318 318 318 319 319 319 318 317 316 316 316 315 315 314 314 314 313 311 308 306 305 305 306 307 308 305 302 299 298 297 296 296 295 295 294 294 292 291
330 328 326 325 326 326 326 325 324 324 323 321 316 313 312 312 311 311 309 308 308 308 308 307 309 313 316 320 320 320 318 317 316 316 317 318 318 317 317 316 316 315 314 313 312 313 313 312 310 307 306 305 305 305 304 304 302 300 298 296 296 297 297 296 296 295 294 291 287
329 328 327 326 326 325 325 324 324 324 322 318 314 311 310 311 311 310 308 307 307 307 307 307 310 314 318 320 320 319 318 316 315 315 315 315 315 315 314 313 314 313 312 313 312 313 312 311 309 308 306 304 303 302 301 301 300 299 298 297 297 298 297 296 296 296 294 289 285
328 327 326 326 325 325 325 325 325 324 323 318 316 313 311 311 310 308 307 308 308 308 308 309 313 317 320 321 321 320 319 318 316 315 314 313 312 311 311 310 312 312 312 312 313 313 312 311 309 307 306 304 302 301 300 300 299 299 299 297 297 297 297 297 297 296 293 287 286
327 327 327 326 326 325 326 326 326 325 323 321 319 317 315 313 311 311 311 311 310 309 310 313 318 321 323 323 322 321 320 318 316 314 313 312 310 309 309 310 311 312 313 313 313 313 312 311 309 307 306 304 302 300 299 300 300 299 299 298 298 297 297 297 297 295 291 287 292
328 329 330 330 329 328 328 329 327 326 325 324 324 322 321 319 318 317 316 315 313 312 312 316 322 325 326 325 323 321 319 318 315 314 312 311 310 310 310 311 313 313 313 313 314 313 312 310 308 306 305 304 302 301 300 300 300 299 299 299 299 298 297 296 295 294 292 292 298
330 332 333 333 332 332 332 331 329 328 327 326 326 325 324 322 321 321 320 317 315 314 315 319 325 327 327 325 322 320 319 317 314 312 311 311 311 311 312 313 314 314 314 313 313 312 310 308 307 305 305 304 303 302 301 300 299 298 298 298 298 297 295 293 293 293 293 296 301
333 335 336 335 335 334 334 333 330 329 328 327 326 325 324 322 321 321 321 319 318 318 319 324 326 326 325 323 321 320 318 316 314 312 311 311 312 314 314 315 315 315 314 313 312 310 308 306 305 305 304 304 303 302 302 301 299 298 297 297 295 294 292 290 290 291 293 298 303
334 335 336 335 335 335 334 332 329 328 327 326 325 323 322 320 320 320 321 322 322 323 324 325 325 324 323 322 321 319 318 316 314 313 313 313 315 315 315 314 314 314 314 314 312 310 308 307 305 304 304 302 302 301 301 300 299 298 297 295 293 290 288 288 289 290 294 301 307
334 334 334 334 334 333 332 329 327 325 324 323 322 321 320 319 319 320 322 325 325 326 325 324 323 322 320 320 319 318 317 315 315 315 316 316 316 315 314 314 313 313 313 313 312 311 309 308 306 304 302 300 299 298 297 297 296 295 294 292 290 288 286 288 289 293 300 309 312
332 332 332 332 331 330 328 326 324 323 322 321 320 320 318 318 318 320 322 325 325 325 324 322 321 320 318 317 317 316 316 315 315 316 317 316 315 314 314 313 313 313 313 312 311 310 309 308 306 304 301 298 295 294 293 293 292 291 290 289 288 287 287 289 293 302 311 318 319
330 330 330 330 329 327 325 323 323 322 321 321 320 319 318 318 319 320 322 324 325 324 323 321 320 318 317 316 315 315 315 313 314 314 315 315 314 314 314 314 313 313 312 311 310 309 308 307 305 302 298 295 293 291 290 288 287 286 286 286 286 287 290 295 305 315 323 326 326
329 329 328 328 326 324 323 322 322 322 321 321 320 320 320 320 321 322 323 323 324 324 322 321 320 318 317 316 315 315 314 313 313 313 314 314 314 314 314 314 313 313 311 310 309 308 306 305 302 298 294 292 290 289 287 285 283 281 281 282 284 290 299 310 321 327 331 332 332
329 328 327 326 325 323 322 322 322 323 323 323 322 322 323 324 325 325 324 324 324 323 323 322 321 320 318 317 316 314 313 312 313 313 313 313 313 314 314 315 314 312 311 309 308 306 304 301 298 295 292 290 289 288 286 284 281 279 280 283 294 308 319 328 333 334 334 334 336
330 329 328 326 325 325 325 325 326 326 326 326 326 327 327 328 327 326 325 325 325 325 324 324 322 321 319 317 315 313 312 312 312 312 311 312 313 314 314 315 313 312 310 308 307 305 302 299 297 295 293 291 290 292 294 296 288 285 290 303 321 332 339 341 338 336 334 335 338
332 331 329 328 328 328 328 329 329 330 330 331 331 331 331 330 329 328 327 326 326 325 325 324 323 320 318 315 314 313 312 312 312 311 311 312 313 314 315 315 314 312 310 308 306 303 300 298 297 296 296 297 308 325 339 330 305 304 315 333 343 347 347 344 337 333 333 337 342
336 335 334 333 333 332 331 331 332 334 335 335 335 334 333 332 330 329 328 326 325 325 324 323 321 319 317 315 315 315 315 314 314 313 313 313 315 316 316 316 315 313 311 308 306 305 304 303 302 303 313 347 19 24 10 334 324 334 348 355 354 353 350 346 338 336 338 343 346
341 340 339 338 336 334 334 335 336 337 338 338 337 336 335 333 332 330 328 326 324 323 322 321 319 318 319 320 320 319 317 316 315 314 314 315 316 318 318 318 317 315 312 309 309 309 310 314 324 357 43 36 32 21 1 343 350 0 7 4 359 358 358 357 350 348 348 349 349
344 343 342 339 337 337 337 338 339 339 339 339 339 338 336 334 332 329 327 325 323 322 321 320 319 322 325 327 325 322 320 318 317 316 315 316 318 319 320 320 319 316 312 310 312 313 316 326 5 53 60 37 24 13 4 359 7 12 13 8 5 7 11 15 8 2 356 353 349
344 343 341 339 338 338 339 340 340 340 340 340 339 338 336 334 331 329 327 325 323 322 321 320 320 324 328 328 325 323 322 320 318 317 316 317 318 320 321 322 320 317 313 312 314 317 324 350 42 57 53 39 24 14 9 11 16 18 18 14 13 15 19 23 17 9 2 356 351
343 341 340 338 339 339 339 340 340 340 340 339 338 336 334 332 330 328 327 326 325 324 323 322 324 326 328 327 325 324 322 321 320 318 318 319 320 322 323 324 322 318 315 315 320 329 348 40 50 50 47 41 30 19 16 21 25 25 24 21 19 19 19 19 15 11 6 2 357
341 340 339 339 338 338 339 339 340 339 338 337 335 333 332 331 329 328 327 327 327 327 326 324 326 327 328 326 325 325 324 323 321 321 321 322 323 324 326 326 323 319 318 319 332 350 24 53 49 46 43 39 34 26 24 29 32 31 29 26 23 20 16 12 9 9 9 7 3
339 339 339 338 338 337 338 338 337 336 335 333 331 330 329 329 329 329 329 329 328 328 327 326 327 327 326 326 326 327 326 325 323 323 324 326 327 328 328 327 325 321 321 324 342 6 35 50 46 44 41 39 36 32 30 34 36 35 32 29 25 21 16 9 4 3 6 9 7
338 338 338 337 337 336 336 334 333 332 331 329 328 328 328 329 330 330 329 329 328 327 327 327 328 327 326 327 328 327 326 325 325 326 328 329 330 329 328 327 325 323 325 331 348 9 33 47 45 43 41 38 36 33 31 35 37 36 33 28 25 22 18 12 4 359 358 5 11
337 337 337 337 336 334 332 331 330 329 328 327 327 328 328 329 329 328 328 327 327 328 329 331 330 329 329 329 329 327 326 325 326 328 330 331 330 329 329 329 328 327 331 338 353 11 32 46 44 43 41 38 36 32 30 33 36 36 32 27 23 21 19 17 10 2 357 358 12
337 337 337 336 334 332 330 329 328 327 327 327 328 329 329 329 328 327 326 326 328 330 332 332 331 330 330 329 328 326 325 325 326 327 329 330 330 330 330 331 330 331 335 341 354 12 32 47 45 43 41 38 35 30 27 28 31 32 30 26 21 18 17 16 14 7 1 356 8
336 336 336 334 332 330 329 328 328 328 328 329 330 330 330 329 327 326 326 327 330 332 332 331 330 329 328 327 325 324 324 325 326 327 327 329 330 331 332 333 332 335 339 344 355 11 30 47 45 44 42 39 35 29 24 24 24 25 25 24 20 17 15 13 11 7 2 356 0
335 335 334 332 330 329 329 329 330 330 331 332 332 331 330 328 326 325 326 328 331 332 332 330 329 328 327 325 324 324 325 326 326 326 327 329 331 332 333 333 333 338 342 345 356 11 28 45 45 44 43 41 37 30 25 22 21 19 19 21 21 18 15 12 9 5 1 355 356
334 333 332 330 330 330 330 331 332 334 335 336 335 333 330 328 326 326 327 330 332 333 332 331 331 330 329 327 326 326 328 328 327 327 328 330 332 333 333 335 337 340 342 345 354 9 27 43 44 44 43 41 38 32 28 24 21 17 15 17 20 19 16 12 8 4 359 354 354
333 332 331 331 331 332 333 335 337 339 340 340 338 335 332 329 329 329 331 334 334 334 333 332 332 331 330 329 328 328 329 330 329 329 329 331 332 334 336 340 340 341 342 344 353 8 26 41 43 43 42 40 37 33 30 26 22 17 15 15 18 18 17 14 8 3 359 355 354
333 332 332 333 334 335 337 339 342 344 345 344 341 338 335 333 333 334 334 336 335 334 333 332 331 330 330 330 330 330 331 332 333 333 332 333 333 337 341 345 343 341 342 344 355 10 27 38 41 42 42 41 36 33 30 27 22 18 15 14 15 16 16 15 9 4 360 356 357
334 334 334 335 337 338 341 344 347 349 348 347 344 341 338 337 337 337 336 336 335 334 333 331 330 330 330 333 333 334 335 336 337 338 337 335 337 343 347 348 343 341 341 344 358 12 25 33 37 41 43 43 37 33 31 27 22 18 16 14 13 13 13 14 10 5 360 356 357
336 337 337 339 340 343 346 350 351 352 351 349 346 343 340 339 338 337 336 335 336 335 334 332 331 331 332 335 337 338 339 341 343 343 342 340 341 347 350 349 343 340 342 347 2 14 23 27 32 38 43 45 38 34 32 29 24 20 17 15 13 11 10 10 9 6 1 357 355
339 340 341 342 345 348 351 353 353 352 351 349 346 343 341 339 338 337 336 336 338 339 338 336 335 334 334 337 339 342 344 346 348 347 346 344 344 348 350 347 344 343 347 354 7 15 21 23 28 34 40 47 42 36 33 32 27 22 18 14 13 10 7 6 7 6 3 358 354